#Datum;Uhrzeit;WR;Pac;DaySum;Status;WR;Pac;DaySum;Status;Pdc1;Udc;Temp;WR;Pac;DaySum;Status;Pdc1;Udc;Temp;WR;Pac;DaySum;Status;Pdc1;Udc;Temp;WR;Pac;DaySum;Status;Pdc1;Pdc2;Udc1;Udc2;Temp;WR;Pac;DaySum;Status;Pdc1;Pdc2;Udc1;Udc2;Temp;WR;Pac;DaySum;Status;Pdc1;Udc;Temp;WR;Pac;DaySum;Status;Pdc1;Udc;Temp;WR;Pac;DaySum;Status;Pdc1;Udc;Temp
26.10.17;23:55:00;1;198;11678;0;2;0;5781;0;0;0;0;3;0;3620;0;0;0;0;4;0;5002;0;0;0;0;5;0;12053;0;0;0;0;0;0;6;0;9302;0;0;0;0;0;0;7;0;6549;0;0;0;0;8;0;6568;0;0;0;0;9;0;3510;0;0;0;0
26.10.17;23:50:00;1;203;11661;0;2;0;5781;0;0;0;0;3;0;3620;0;0;0;0;4;0;5002;0;0;0;0;5;0;12053;0;0;0;0;0;0;6;0;9302;0;0;0;0;0;0;7;0;6549;0;0;0;0;8;0;6568;0;0;0;0;9;0;3510;0;0;0;0
26.10.17;23:45:00;1;213;11644;0;2;0;5781;0;0;0;0;3;0;3620;0;0;0;0;4;0;5002;0;0;0;0;5;0;12053;0;0;0;0;0;0;6;0;9302;0;0;0;0;0;0;7;0;6549;0;0;0;0;8;0;6568;0;0;0;0;9;0;3510;0;0;0;0
26.10.17;23:40:00;1;221;11626;0;2;0;5781;0;0;0;0;3;0;3620;0;0;0;0;4;0;5002;0;0;0;0;5;0;12053;0;0;0;0;0;0;6;0;9302;0;0;0;0;0;0;7;0;6549;0;0;0;0;8;0;6568;0;0;0;0;9;0;3510;0;0;0;0
26.10.17;23:35:00;1;238;11608;0;2;0;5781;0;0;0;0;3;0;3620;0;0;0;0;4;0;5002;0;0;0;0;5;0;12053;0;0;0;0;0;0;6;0;9302;0;0;0;0;0;0;7;0;6549;0;0;0;0;8;0;6568;0;0;0;0;9;0;3510;0;0;0;0
26.10.17;23:30:00;1;299;11588;0;2;0;5781;0;0;0;0;3;0;3620;0;0;0;0;4;0;5002;0;0;0;0;5;0;12053;0;0;0;0;0;0;6;0;9302;0;0;0;0;0;0;7;0;6549;0;0;0;0;8;0;6568;0;0;0;0;9;0;3510;0;0;0;0
26.10.17;23:25:00;1;393;11563;0;2;0;5781;0;0;0;0;3;0;3620;0;0;0;0;4;0;5002;0;0;0;0;5;0;12053;0;0;0;0;0;0;6;0;9302;0;0;0;0;0;0;7;0;6549;0;0;0;0;8;0;6568;0;0;0;0;9;0;3510;0;0;0;0
26.10.17;23:20:00;1;376;11532;0;2;0;5781;0;0;0;0;3;0;3620;0;0;0;0;4;0;5002;0;0;0;0;5;0;12053;0;0;0;0;0;0;6;0;9302;0;0;0;0;0;0;7;0;6549;0;0;0;0;8;0;6568;0;0;0;0;9;0;3510;0;0;0;0
26.10.17;23:15:00;1;382;11501;0;2;0;5781;0;0;0;0;3;0;3620;0;0;0;0;4;0;5002;0;0;0;0;5;0;12053;0;0;0;0;0;0;6;0;9302;0;0;0;0;0;0;7;0;6549;0;0;0;0;8;0;6568;0;0;0;0;9;0;3510;0;0;0;0
26.10.17;23:10:00;1;361;11469;0;2;0;5781;0;0;0;0;3;0;3620;0;0;0;0;4;0;5002;0;0;0;0;5;0;12053;0;0;0;0;0;0;6;0;9302;0;0;0;0;0;0;7;0;6549;0;0;0;0;8;0;6568;0;0;0;0;9;0;3510;0;0;0;0
26.10.17;23:05:00;1;338;11438;0;2;0;5781;0;0;0;0;3;0;3620;0;0;0;0;4;0;5002;0;0;0;0;5;0;12053;0;0;0;0;0;0;6;0;9302;0;0;0;0;0;0;7;0;6549;0;0;0;0;8;0;6568;0;0;0;0;9;0;3510;0;0;0;0
26.10.17;23:00:00;1;354;11410;0;2;0;5781;0;0;0;0;3;0;3620;0;0;0;0;4;0;5002;0;0;0;0;5;0;12053;0;0;0;0;0;0;6;0;9302;0;0;0;0;0;0;7;0;6549;0;0;0;0;8;0;6568;0;0;0;0;9;0;3510;0;0;0;0
26.10.17;22:55:00;1;353;11380;0;2;0;5781;0;0;0;0;3;0;3620;0;0;0;0;4;0;5002;0;0;0;0;5;0;12053;2;0;0;0;0;0;6;0;9302;2;0;0;0;0;0;7;0;6549;0;0;0;0;8;0;6568;0;0;0;0;9;0;3510;0;0;0;0
26.10.17;22:50:00;1;353;11351;0;2;0;5781;0;0;0;0;3;0;3620;0;0;0;0;4;0;5002;0;0;0;0;5;0;12053;2;0;0;0;0;0;6;0;9302;2;0;0;0;0;0;7;0;6549;0;0;0;0;8;0;6568;0;0;0;0;9;0;3510;0;0;0;0
26.10.17;22:45:00;1;379;11320;0;2;0;5781;0;0;0;0;3;0;3620;0;0;0;0;4;0;5002;0;0;0;0;5;0;12053;2;0;0;0;0;0;6;0;9302;2;0;0;0;0;0;7;0;6549;0;0;0;0;8;0;6568;0;0;0;0;9;0;3510;0;0;0;0
26.10.17;22:40:00;1;389;11288;0;2;0;5781;0;0;0;0;3;0;3620;0;0;0;0;4;0;5002;0;0;0;0;5;0;12053;2;0;0;0;0;0;6;0;9302;2;0;0;0;0;0;7;0;6549;0;0;0;0;8;0;6568;0;0;0;0;9;0;3510;0;0;0;0
26.10.17;22:35:00;1;425;11256;0;2;0;5781;0;0;0;0;3;0;3620;0;0;0;0;4;0;5002;0;0;0;0;5;0;12053;2;0;0;0;0;0;6;0;9302;2;0;0;0;0;0;7;0;6549;0;0;0;0;8;0;6568;0;0;0;0;9;0;3510;0;0;0;0
26.10.17;22:30:00;1;449;11220;0;2;0;5781;0;0;0;0;3;0;3620;0;0;0;0;4;0;5002;0;0;0;0;5;0;12053;2;0;0;0;0;0;6;0;9302;2;0;0;0;0;0;7;0;6549;0;0;0;0;8;0;6568;0;0;0;0;9;0;3510;0;0;0;0
26.10.17;22:25:00;1;448;11183;0;2;0;5781;0;0;0;0;3;0;3620;0;0;0;0;4;0;5002;0;0;0;0;5;0;12053;2;0;0;0;0;0;6;0;9302;2;0;0;0;0;0;7;0;6549;0;0;0;0;8;0;6568;0;0;0;0;9;0;3510;0;0;0;0
26.10.17;22:20:00;1;417;11145;0;2;0;5781;0;0;0;0;3;0;3620;0;0;0;0;4;0;5002;0;0;0;0;5;0;12053;2;0;0;0;0;0;6;0;9302;2;0;0;0;0;0;7;0;6549;0;0;0;0;8;0;6568;0;0;0;0;9;0;3510;0;0;0;0
26.10.17;22:15:00;1;281;11111;0;2;0;5781;0;0;0;0;3;0;3620;0;0;0;0;4;0;5002;0;0;0;0;5;0;12053;2;0;0;0;0;0;6;0;9302;2;0;0;0;0;0;7;0;6549;0;0;0;0;8;0;6568;0;0;0;0;9;0;3510;0;0;0;0
26.10.17;22:10:00;1;303;11087;0;2;0;5781;0;0;0;0;3;0;3620;0;0;0;0;4;0;5002;0;0;0;0;5;0;12053;2;0;0;0;0;0;6;0;9302;2;0;0;0;0;0;7;0;6549;0;0;0;0;8;0;6568;0;0;0;0;9;0;3510;0;0;0;0
26.10.17;22:05:00;1;307;11062;0;2;0;5781;0;0;0;0;3;0;3620;0;0;0;0;4;0;5002;0;0;0;0;5;0;12053;2;0;0;0;0;0;6;0;9302;2;0;0;0;0;0;7;0;6549;0;0;0;0;8;0;6568;0;0;0;0;9;0;3510;0;0;0;0
26.10.17;22:00:00;1;312;11036;0;2;0;5781;0;0;0;0;3;0;3620;0;0;0;0;4;0;5002;0;0;0;0;5;0;12053;2;0;0;0;0;0;6;0;9302;2;0;0;0;0;0;7;0;6549;0;0;0;0;8;0;6568;0;0;0;0;9;0;3510;0;0;0;0
26.10.17;21:55:00;1;372;11010;0;2;0;5781;0;0;0;0;3;0;3620;0;0;0;0;4;0;5002;0;0;0;0;5;0;12053;2;0;0;0;0;0;6;0;9302;2;0;0;0;0;0;7;0;6549;0;0;0;0;8;0;6568;0;0;0;0;9;0;3510;0;0;0;0
26.10.17;21:50:00;1;295;10969;0;2;0;5781;0;0;0;0;3;0;3620;0;0;0;0;4;0;5002;0;0;0;0;5;0;12053;2;0;0;0;0;0;6;0;9302;2;0;0;0;0;0;7;0;6549;0;0;0;0;8;0;6568;0;0;0;0;9;0;3510;0;0;0;0
26.10.17;21:45:00;1;273;10944;0;2;0;5781;0;0;0;0;3;0;3620;0;0;0;0;4;0;5002;0;0;0;0;5;0;12053;2;0;0;0;0;0;6;0;9302;2;0;0;0;0;0;7;0;6549;0;0;0;0;8;0;6568;0;0;0;0;9;0;3510;0;0;0;0
26.10.17;21:40:00;1;315;10921;0;2;0;5781;0;0;0;0;3;0;3620;0;0;0;0;4;0;5002;0;0;0;0;5;0;12053;2;0;0;0;0;0;6;0;9302;2;0;0;0;0;0;7;0;6549;0;0;0;0;8;0;6568;0;0;0;0;9;0;3510;0;0;0;0
26.10.17;21:35:00;1;306;10895;0;2;0;5781;0;0;0;0;3;0;3620;0;0;0;0;4;0;5002;0;0;0;0;5;0;12053;2;0;0;0;0;0;6;0;9302;2;0;0;0;0;0;7;0;6549;0;0;0;0;8;0;6568;0;0;0;0;9;0;3510;0;0;0;0
26.10.17;21:30:00;1;308;10869;0;2;0;5781;0;0;0;0;3;0;3620;0;0;0;0;4;0;5002;0;0;0;0;5;0;12053;2;0;0;0;0;0;6;0;9302;2;0;0;0;0;0;7;0;6549;0;0;0;0;8;0;6568;0;0;0;0;9;0;3510;0;0;0;0
26.10.17;21:25:00;1;304;10844;0;2;0;5781;0;0;0;0;3;0;3620;0;0;0;0;4;0;5002;0;0;0;0;5;0;12053;2;0;0;0;0;0;6;0;9302;2;0;0;0;0;0;7;0;6549;0;0;0;0;8;0;6568;0;0;0;0;9;0;3510;0;0;0;0
26.10.17;21:20:00;1;261;10818;0;2;0;5781;0;0;0;0;3;0;3620;0;0;0;0;4;0;5002;0;0;0;0;5;0;12053;2;0;0;0;0;0;6;0;9302;2;0;0;0;0;0;7;0;6549;0;0;0;0;8;0;6568;0;0;0;0;9;0;3510;0;0;0;0
26.10.17;21:15:00;1;238;10796;0;2;0;5781;0;0;0;0;3;0;3620;0;0;0;0;4;0;5002;0;0;0;0;5;0;12053;2;0;0;0;0;0;6;0;9302;2;0;0;0;0;0;7;0;6549;0;0;0;0;8;0;6568;0;0;0;0;9;0;3510;0;0;0;0
26.10.17;21:10:00;1;192;10776;0;2;0;5781;0;0;0;0;3;0;3620;0;0;0;0;4;0;5002;0;0;0;0;5;0;12053;2;0;0;0;0;0;6;0;9302;2;0;0;0;0;0;7;0;6549;0;0;0;0;8;0;6568;0;0;0;0;9;0;3510;0;0;0;0
26.10.17;21:05:00;1;192;10760;0;2;0;5781;0;0;0;0;3;0;3620;0;0;0;0;4;0;5002;0;0;0;0;5;0;12053;2;0;0;0;0;0;6;0;9302;2;0;0;0;0;0;7;0;6549;0;0;0;0;8;0;6568;0;0;0;0;9;0;3510;0;0;0;0
26.10.17;21:00:00;1;191;10744;0;2;0;5781;0;0;0;0;3;0;3620;0;0;0;0;4;0;5002;0;0;0;0;5;0;12053;2;0;0;0;0;0;6;0;9302;2;0;0;0;0;0;7;0;6549;0;0;0;0;8;0;6568;0;0;0;0;9;0;3510;0;0;0;0
26.10.17;20:55:00;1;218;10728;0;2;0;5781;0;0;0;0;3;0;3620;0;0;0;0;4;0;5002;0;0;0;0;5;0;12053;2;0;0;0;0;0;6;0;9302;2;0;0;0;0;0;7;0;6549;0;0;0;0;8;0;6568;0;0;0;0;9;0;3510;0;0;0;0
26.10.17;20:50:00;1;197;10709;0;2;0;5781;0;0;0;0;3;0;3620;0;0;0;0;4;0;5002;0;0;0;0;5;0;12053;2;0;0;0;0;0;6;0;9302;2;0;0;0;0;0;7;0;6549;0;0;0;0;8;0;6568;0;0;0;0;9;0;3510;0;0;0;0
26.10.17;20:45:00;1;215;10692;0;2;0;5781;0;0;0;0;3;0;3620;0;0;0;0;4;0;5002;0;0;0;0;5;0;12053;2;0;0;0;0;0;6;0;9302;2;0;0;0;0;0;7;0;6549;0;0;0;0;8;0;6568;0;0;0;0;9;0;3510;0;0;0;0
26.10.17;20:40:00;1;233;10674;0;2;0;5781;0;0;0;0;3;0;3620;0;0;0;0;4;0;5002;0;0;0;0;5;0;12053;2;0;0;0;0;0;6;0;9302;2;0;0;0;0;0;7;0;6549;0;0;0;0;8;0;6568;0;0;0;0;9;0;3510;0;0;0;0
26.10.17;20:35:00;1;234;10654;0;2;0;5781;0;0;0;0;3;0;3620;0;0;0;0;4;0;5002;0;0;0;0;5;0;12053;2;0;0;0;0;0;6;0;9302;2;0;0;0;0;0;7;0;6549;0;0;0;0;8;0;6568;0;0;0;0;9;0;3510;0;0;0;0
26.10.17;20:30:00;1;225;10635;0;2;0;5781;0;0;0;0;3;0;3620;0;0;0;0;4;0;5002;0;0;0;0;5;0;12053;2;0;0;0;0;0;6;0;9302;2;0;0;0;0;0;7;0;6549;0;0;0;0;8;0;6568;0;0;0;0;9;0;3510;0;0;0;0
26.10.17;20:25:00;1;191;10615;0;2;0;5781;0;0;0;0;3;0;3620;0;0;0;0;4;0;5002;0;0;0;0;5;0;12053;2;0;0;0;0;0;6;0;9302;2;0;0;0;0;0;7;0;6549;0;0;0;0;8;0;6568;0;0;0;0;9;0;3510;0;0;0;0
26.10.17;20:20:00;1;191;10599;0;2;0;5781;0;0;0;0;3;0;3620;0;0;0;0;4;0;5002;0;0;0;0;5;0;12053;2;0;0;0;0;0;6;0;9302;2;0;0;0;0;0;7;0;6549;0;0;0;0;8;0;6568;0;0;0;0;9;0;3510;0;0;0;0
26.10.17;20:15:00;1;190;10583;0;2;0;5781;0;0;0;0;3;0;3620;0;0;0;0;4;0;5002;0;0;0;0;5;0;12053;2;0;0;0;0;0;6;0;9302;2;0;0;0;0;0;7;0;6549;0;0;0;0;8;0;6568;0;0;0;0;9;0;3510;0;0;0;0
26.10.17;20:10:00;1;190;10567;0;2;0;5781;0;0;0;0;3;0;3620;0;0;0;0;4;0;5002;0;0;0;0;5;0;12053;2;0;0;0;0;0;6;0;9302;2;0;0;0;0;0;7;0;6549;0;0;0;0;8;0;6568;0;0;0;0;9;0;3510;0;0;0;0
26.10.17;20:05:00;1;191;10551;0;2;0;5781;0;0;0;0;3;0;3620;0;0;0;0;4;0;5002;0;0;0;0;5;0;12053;2;0;0;0;0;0;6;0;9302;2;0;0;0;0;0;7;0;6549;0;0;0;0;8;0;6568;0;0;0;0;9;0;3510;0;0;0;0
26.10.17;20:00:00;1;191;10536;0;2;0;5781;0;0;0;0;3;0;3620;0;0;0;0;4;0;5002;0;0;0;0;5;0;12053;2;0;0;0;0;0;6;0;9302;2;0;0;0;0;0;7;0;6549;0;0;0;0;8;0;6568;0;0;0;0;9;0;3510;0;0;0;0
26.10.17;19:55:00;1;191;10520;0;2;0;5781;0;0;0;0;3;0;3620;0;0;0;0;4;0;5002;0;0;0;0;5;0;12053;2;0;0;0;0;0;6;0;9302;2;0;0;0;0;0;7;0;6549;0;0;0;0;8;0;6568;0;0;0;0;9;0;3510;0;0;0;0
26.10.17;19:50:00;1;191;10504;0;2;0;5781;0;0;0;0;3;0;3620;0;0;0;0;4;0;5002;0;0;0;0;5;0;12053;2;0;0;0;0;0;6;0;9302;2;0;0;0;0;0;7;0;6549;0;0;0;0;8;0;6568;0;0;0;0;9;0;3510;0;0;0;0
26.10.17;19:45:00;1;225;10488;0;2;0;5781;0;0;0;0;3;0;3620;0;0;0;0;4;0;5002;0;0;0;0;5;0;12053;2;0;0;0;0;0;6;0;9302;2;0;0;0;0;0;7;0;6549;0;0;0;0;8;0;6568;0;0;0;0;9;0;3510;0;0;0;0
26.10.17;19:40:00;1;232;10469;0;2;0;5781;0;0;0;0;3;0;3620;0;0;0;0;4;0;5002;0;0;0;0;5;0;12053;2;0;0;0;0;0;6;0;9302;2;0;0;0;0;0;7;0;6549;0;0;0;0;8;0;6568;0;0;0;0;9;0;3510;0;0;0;0
26.10.17;19:35:00;1;339;10449;0;2;0;5781;0;0;0;0;3;0;3620;0;0;0;0;4;0;5002;0;0;0;0;5;0;12053;2;0;0;0;0;0;6;0;9302;2;0;0;0;0;0;7;0;6549;0;0;0;0;8;0;6568;0;0;0;0;9;0;3510;0;0;0;0
26.10.17;19:30:00;1;569;10419;0;2;0;5781;0;0;0;0;3;0;3620;0;0;0;0;4;0;5002;0;0;0;0;5;0;12053;2;0;0;0;0;0;6;0;9302;2;0;0;0;0;0;7;0;6549;0;0;0;0;8;0;6568;0;0;0;0;9;0;3510;0;0;0;0
26.10.17;19:25:00;1;609;10371;0;2;0;5781;0;0;0;0;3;0;3620;0;0;0;0;4;0;5002;0;0;0;0;5;0;12053;2;0;0;0;0;0;6;0;9302;2;0;0;0;0;0;7;0;6549;0;0;0;0;8;0;6568;0;0;0;0;9;0;3510;0;0;0;0
26.10.17;19:20:00;1;589;10320;0;2;0;5781;0;0;0;0;3;0;3620;0;0;0;0;4;0;5002;0;0;0;0;5;0;12053;2;0;0;0;0;0;6;0;9302;2;0;0;0;0;0;7;0;6549;0;0;0;0;8;0;6568;0;0;0;0;9;0;3510;0;0;0;0
26.10.17;19:15:00;1;623;10270;0;2;0;5781;0;0;0;0;3;0;3620;0;0;0;0;4;0;5002;0;0;0;0;5;0;12053;2;0;0;0;0;0;6;0;9302;2;0;0;0;0;0;7;0;6549;0;0;0;0;8;0;6568;0;0;0;0;9;0;3510;0;0;0;0
26.10.17;19:10:00;1;638;10218;0;2;0;5781;0;0;0;0;3;0;3620;0;0;0;0;4;0;5002;0;0;0;0;5;0;12053;2;0;0;0;0;0;6;0;9302;2;0;0;0;0;0;7;0;6549;0;0;0;0;8;0;6568;0;0;0;0;9;0;3510;0;0;0;0
26.10.17;19:05:00;1;642;10165;0;2;0;5781;0;0;0;0;3;0;3620;0;0;0;0;4;0;5002;0;0;0;0;5;0;12053;2;0;0;0;0;0;6;0;9302;2;0;0;0;0;0;7;0;6549;0;0;0;0;8;0;6568;0;0;0;0;9;0;3510;0;0;0;0
26.10.17;19:00:00;1;716;10112;0;2;0;5781;0;0;0;0;3;0;3620;0;0;0;0;4;0;5002;0;0;0;0;5;0;12053;2;0;0;0;0;0;6;0;9302;2;0;0;0;0;0;7;0;6549;0;0;0;0;8;0;6568;0;0;0;0;9;0;3510;0;0;0;0
26.10.17;18:55:00;1;654;10054;0;2;0;5781;0;0;0;0;3;0;3620;0;0;0;0;4;0;5002;0;0;0;0;5;0;12053;2;0;0;0;0;0;6;0;9302;2;0;0;0;0;0;7;0;6549;0;0;0;0;8;0;6568;0;0;0;0;9;0;3510;0;0;0;0
26.10.17;18:50:00;1;2622;9999;0;2;0;5781;0;0;0;0;3;0;3620;0;0;0;0;4;0;5002;0;0;0;0;5;0;12053;2;0;0;0;0;0;6;0;9302;2;0;0;0;0;0;7;0;6549;0;0;0;0;8;0;6568;0;0;0;0;9;0;3510;0;0;0;0
26.10.17;18:45:00;1;2625;9769;0;2;0;5781;0;0;0;0;3;0;3620;0;0;0;0;4;0;5002;0;0;0;0;5;0;12053;2;0;0;0;0;0;6;0;9302;2;0;0;0;0;0;7;0;6549;0;0;0;0;8;0;6568;0;0;0;0;9;0;3510;0;0;0;0
26.10.17;18:40:00;1;2189;9550;0;2;0;5781;0;0;0;0;3;0;3620;0;0;0;0;4;0;5002;0;0;0;0;5;0;12053;2;0;0;0;0;0;6;0;9302;2;0;0;0;0;0;7;0;6549;0;0;0;0;8;0;6568;0;0;0;0;9;0;3510;0;0;0;0
26.10.17;18:35:00;1;1533;9370;0;2;0;5781;0;0;0;0;3;0;3620;0;0;0;0;4;0;5002;0;0;0;0;5;0;12053;2;0;0;0;0;0;6;0;9302;2;0;0;0;0;0;7;0;6549;0;0;0;0;8;0;6568;0;0;0;0;9;0;3510;0;0;0;0
26.10.17;18:30:00;1;951;9219;0;2;0;5781;0;0;0;0;3;0;3620;0;0;0;0;4;0;5002;0;0;0;0;5;0;12053;2;0;0;0;0;0;6;0;9302;2;0;0;0;0;0;7;0;6549;0;0;0;0;8;0;6568;0;0;0;0;9;0;3510;0;0;0;0
26.10.17;18:25:00;1;728;9149;0;2;0;5781;0;0;0;0;3;0;3620;0;0;0;0;4;0;5002;0;0;0;0;5;0;12053;2;0;0;0;0;0;6;0;9302;2;0;0;0;0;0;7;0;6549;0;0;0;0;8;0;6568;0;0;0;0;9;0;3510;0;0;0;0
26.10.17;18:20:00;1;1566;9088;0;2;0;5781;0;0;0;0;3;0;3620;0;0;0;0;4;0;5002;0;0;0;0;5;0;12053;2;0;0;0;0;0;6;0;9302;2;0;0;0;0;0;7;0;6549;0;0;0;0;8;0;6568;0;0;0;0;9;0;3510;0;0;0;0
26.10.17;18:15:00;1;2025;8952;0;2;0;5781;0;0;0;0;3;0;3620;0;0;173;15;4;0;5002;0;0;0;0;5;0;12053;2;0;0;0;0;0;6;0;9302;2;0;0;0;0;0;7;0;6549;0;0;0;0;8;0;6568;0;0;0;0;9;0;3510;0;0;0;0
26.10.17;18:10:00;1;1327;8799;0;2;0;5781;0;0;239;18;3;0;3620;6;0;315;23;4;0;5002;2;0;75;20;5;0;12053;0;3;0;83;129;13;6;0;9302;0;0;0;0;0;0;7;0;6549;0;0;0;0;8;0;6568;0;0;0;0;9;0;3510;0;0;0;0
26.10.17;18:05:00;1;1904;8690;0;2;0;5781;6;0;321;21;3;0;3620;6;0;394;23;4;0;5002;1;0;125;21;5;0;12053;23;7;1;215;455;31;6;0;9302;23;5;7;335;245;29;7;0;6549;0;0;148;13;8;0;6568;0;0;154;13;9;0;3510;0;0;220;13
26.10.17;18:00:00;1;2513;8539;0;2;0;5781;6;0;352;21;3;0;3620;6;1;427;24;4;0;5002;1;0;166;21;5;0;12053;23;8;0;380;179;31;6;0;9302;23;4;7;180;505;30;7;0;6549;6;0;310;22;8;0;6568;6;0;315;22;9;0;3510;6;0;333;18
26.10.17;17:55:00;1;3533;8341;0;2;0;5781;6;0;373;22;3;0;3620;4;2;447;24;4;0;5002;1;0;199;21;5;0;12053;23;8;0;401;274;32;6;0;9302;23;3;6;269;541;30;7;0;6549;6;0;375;22;8;0;6568;6;0;380;22;9;0;3510;6;0;409;18
26.10.17;17:50:00;1;2706;8031;0;2;0;5781;6;0;393;22;3;0;3620;6;4;477;24;4;0;5002;1;0;221;22;5;28;12053;1;20;3;350;369;32;6;33;9302;1;10;28;498;478;31;7;0;6549;6;1;417;23;8;0;6568;6;1;420;22;9;0;3510;6;1;459;18
26.10.17;17:45:00;1;1396;7805;0;2;0;5781;6;0;408;22;3;1;3620;6;7;495;24;4;1;5002;3;1;199;22;5;68;12050;4;60;13;319;225;33;6;69;9299;4;29;47;459;439;32;7;1;6549;6;7;444;23;8;1;6568;6;7;446;23;9;0;3510;6;0;505;18
26.10.17;17:40:00;1;1232;7678;0;2;58;5781;4;89;355;23;3;9;3620;6;19;491;24;4;12;5002;3;12;198;22;5;103;12044;4;77;19;319;225;33;6;103;9292;4;47;74;459;439;32;7;25;6549;6;49;421;23;8;23;6568;6;46;427;23;9;4;3510;3;12;499;19
26.10.17;17:35:00;1;1912;7587;0;2;86;5777;4;121;356;23;3;34;3619;6;58;395;25;4;49;5001;3;51;197;22;5;135;12036;4;96;26;318;225;33;6;137;9283;4;54;77;459;439;32;7;53;6547;4;98;418;23;8;59;6566;4;100;419;23;9;15;3510;6;26;498;19
26.10.17;17:30:00;1;1638;7400;0;2;98;5770;4;129;359;23;3;51;3617;4;87;426;25;4;56;4997;3;58;197;22;5;157;12024;4;144;39;318;225;33;6;156;9272;4;61;77;459;439;32;7;73;6543;4;109;398;23;8;74;6562;4;106;407;23;9;7;3508;6;11;536;19
26.10.17;17:25:00;1;1597;7273;0;2;125;5761;4;158;358;23;3;66;3613;4;106;471;25;4;87;4992;3;91;199;22;5;187;12011;4;146;43;319;225;33;6;194;9258;4;79;97;459;439;31;7;89;6537;4;135;423;23;8;94;6556;4;132;432;23;9;33;3508;6;47;450;19
26.10.17;17:20:00;1;2764;7128;0;2;114;5751;4;148;361;23;3;62;3607;4;100;438;25;4;76;4985;5;79;200;23;5;177;11995;4;146;43;319;225;33;6;186;9242;4;77;98;459;439;31;7;88;6530;4;131;447;23;8;87;6548;4;130;456;23;9;20;3505;4;28;518;19
26.10.17;17:15:00;1;2691;6902;0;2;93;5741;4;125;361;23;3;44;3602;4;76;365;25;4;58;4978;3;61;197;23;5;161;11980;4;137;37;331;225;33;6;160;9227;4;64;82;459;439;31;7;82;6522;4;115;401;23;8;75;6540;4;116;400;23;9;8;3503;6;12;532;19
26.10.17;17:10:00;1;636;6709;0;2;119;5733;4;153;358;23;3;65;3598;4;100;441;25;4;79;4973;3;82;199;23;5;249;11966;4;183;90;383;412;33;6;190;9213;4;89;112;459;439;31;7;91;6515;4;136;427;23;8;107;6534;4;139;402;23;9;30;3502;6;44;507;20
26.10.17;17:05:00;1;1062;6656;0;2;203;5724;4;240;370;23;3;115;3593;4;156;493;25;4;156;4967;5;162;219;23;5;433;11945;4;237;175;388;609;33;6;310;9197;4;131;162;491;522;31;7;178;6508;4;222;421;23;8;187;6525;4;220;434;23;9;94;3500;4;126;488;20
26.10.17;17:00:00;1;2787;6559;0;2;312;5707;4;351;374;23;3;188;3583;4;229;493;25;4;249;4954;5;259;222;23;5;622;11907;4;331;244;396;628;33;6;461;9170;4;224;261;547;544;31;7;292;6493;4;338;449;23;8;290;6510;4;329;456;23;9;156;3492;4;188;498;21
26.10.17;16:55:00;1;674;6387;0;2;343;5681;4;385;387;23;3;210;3568;4;253;489;25;4;280;4934;5;291;226;23;5;679;11855;4;403;300;403;628;33;6;511;9131;4;247;284;548;546;31;7;375;6469;4;415;451;24;8;376;6486;4;414;459;23;9;201;3480;4;237;490;21
26.10.17;16:50:00;1;2347;6328;0;2;392;5653;4;434;383;23;3;240;3550;4;282;486;25;4;325;4910;5;339;229;23;5;786;11797;4;471;354;398;637;33;6;588;9088;4;286;319;565;545;31;7;422;6437;4;461;450;24;8;423;6454;4;465;460;23;9;227;3463;4;263;500;21
26.10.17;16:45:00;1;2712;6106;0;2;411;5620;4;456;382;23;3;253;3530;4;297;490;24;4;342;4883;5;356;227;23;5;823;11731;4;458;347;399;641;33;6;618;9039;4;292;321;559;547;31;7;437;6402;4;475;442;24;8;440;6419;4;486;458;23;9;233;3444;4;273;508;21
26.10.17;16:40:00;1;538;5913;0;2;441;5586;4;487;387;22;3;274;3509;4;317;482;24;4;361;4855;5;377;230;23;5;846;11663;4;488;374;401;634;33;6;643;8987;4;315;351;561;554;31;7;466;6367;4;509;447;24;8;469;6383;4;517;454;23;9;250;3424;4;289;502;21
26.10.17;16:35:00;1;517;5869;0;2;375;5549;4;417;386;22;3;229;3486;4;272;486;24;4;300;4825;5;313;229;23;5;722;11593;4;412;312;397;630;33;6;542;8934;4;258;290;562;543;31;7;386;6328;4;432;449;24;8;389;6344;4;431;455;23;9;205;3404;4;242;503;21
26.10.17;16:30:00;1;579;5825;0;2;427;5518;4;474;386;23;3;263;3467;4;311;493;24;4;347;4800;5;361;228;23;5;823;11531;4;483;367;401;629;33;6;615;8888;4;298;329;567;550;31;7;443;6296;4;494;454;24;8;449;6311;4;487;450;23;9;235;3386;4;275;498;21
26.10.17;16:25:00;1;2355;5746;0;2;480;5482;4;527;385;23;3;299;3445;4;349;493;24;4;395;4771;5;411;229;23;5;908;11463;4;516;398;405;635;33;6;688;8837;4;348;382;561;556;31;7;538;6259;4;577;457;24;8;531;6274;4;572;458;23;9;276;3367;4;318;505;21
26.10.17;16:20:00;1;576;5546;0;2;381;5443;4;426;384;23;3;236;3421;4;280;478;24;4;315;4738;5;328;224;23;5;793;11389;4;456;352;402;633;33;6;583;8781;4;288;320;562;547;31;7;421;6214;4;460;446;24;8;411;6230;4;451;463;23;9;219;3344;4;257;506;21
26.10.17;16:15:00;1;602;5496;0;2;532;5411;4;580;386;23;3;329;3401;4;378;494;24;4;444;4712;5;462;229;23;5;1033;11322;4;599;463;403;636;33;6;786;8731;4;389;411;563;546;31;7;552;6180;4;592;454;24;8;547;6196;4;596;452;23;9;290;3326;4;329;507;21
26.10.17;16:10:00;1;575;5447;0;2;539;5367;4;586;389;23;3;332;3373;4;383;493;24;4;455;4675;5;474;231;23;5;1078;11234;4;618;472;406;642;33;6;831;8664;4;409;429;570;547;31;7;643;6133;4;694;458;24;8;651;6150;4;703;456;23;9;345;3301;4;388;500;21
26.10.17;16:05:00;1;1946;5398;0;2;515;5322;4;562;394;23;3;320;3346;4;365;476;24;4;440;4636;5;458;230;23;5;1064;11143;4;649;493;403;637;33;6;808;8595;4;411;428;569;549;31;7;592;6079;4;638;460;24;8;591;6096;4;639;459;23;9;314;3273;4;360;503;21
26.10.17;16:00:00;1;2428;5220;0;2;497;5278;4;546;387;23;3;312;3319;4;360;480;24;4;419;4600;5;436;231;23;5;1023;11054;4;602;465;403;637;33;6;791;8527;4;392;425;566;545;31;7;572;6030;4;616;467;24;8;569;6046;4;615;455;23;9;301;3246;4;343;513;21
26.10.17;15:55:00;1;602;5021;0;2;536;5237;4;584;389;23;3;331;3293;4;383;492;24;4;457;4565;5;476;230;23;5;1134;10969;4;661;513;405;643;33;6;860;8461;4;437;461;573;555;31;7;603;5982;4;646;458;24;8;598;5999;4;647;464;23;9;320;3221;4;363;510;21
26.10.17;15:50:00;1;557;4971;0;2;512;5192;4;559;384;23;3;316;3265;4;364;482;24;4;439;4526;5;458;230;23;5;1095;10873;4;650;499;408;643;33;6;841;8388;4;417;431;565;549;31;7;592;5932;4;641;462;24;8;602;5949;4;651;455;23;9;320;3194;4;366;510;21
26.10.17;15:45:00;1;540;4925;0;2;361;5149;4;402;374;23;3;223;3238;4;265;472;24;4;304;4489;5;317;226;23;5;788;10782;4;459;350;398;629;33;6;607;8318;4;287;327;550;541;31;7;429;5883;4;469;455;24;8;428;5899;4;473;443;23;9;231;3168;4;268;499;21
26.10.17;15:40:00;1;576;4879;0;2;279;5119;4;318;376;23;3;170;3220;4;211;484;24;4;226;4464;5;235;223;23;5;607;10719;4;352;266;396;620;33;6;459;8270;4;221;254;557;546;31;7;283;5846;4;327;454;24;8;297;5863;4;334;452;24;9;158;3148;4;192;499;21
26.10.17;15:35:00;1;475;4831;0;2;231;5095;4;270;366;23;3;134;3205;4;177;496;24;4;185;4445;5;193;217;24;5;522;10669;4;296;222;390;622;33;6;398;8231;4;173;201;542;535;31;7;223;5822;4;270;437;24;8;229;5838;4;265;429;24;9;122;3135;4;155;490;21
26.10.17;15:30:00;1;439;4788;0;2;259;5075;4;298;378;23;3;155;3194;4;197;488;25;4;208;4429;5;217;222;24;5;589;10625;4;363;271;390;619;33;6;445;8198;4;206;231;553;530;31;7;272;5804;4;310;454;24;8;271;5818;4;313;447;24;9;145;3125;4;176;499;21
26.10.17;15:25:00;1;395;4748;0;2;396;5054;4;440;385;23;3;242;3181;4;289;484;25;4;333;4412;5;347;226;24;5;879;10575;4;523;397;401;632;33;6;667;8160;4;333;358;563;539;31;7;393;5781;4;445;454;24;8;404;5796;4;446;452;24;9;214;3113;4;251;494;22
26.10.17;15:20:00;1;495;4714;0;2;383;5021;4;425;385;24;3;237;3161;4;280;477;25;4;319;4384;5;332;225;24;5;833;10501;4;490;379;398;626;33;6;646;8103;4;320;344;564;540;31;7;367;5748;4;409;466;24;8;382;5762;4;420;458;24;9;206;3095;4;242;489;22
26.10.17;15:15:00;1;394;4666;0;2;553;4989;4;602;385;24;3;342;3141;4;391;486;25;4;469;4357;5;489;231;24;5;1180;10431;4;679;524;403;637;33;6;886;8049;4;444;460;562;551;31;7;501;5717;4;547;458;24;8;503;5730;4;547;446;24;9;266;3077;4;306;502;22
26.10.17;15:10:00;1;1608;4630;0;2;721;4942;4;775;394;24;3;454;3112;4;506;492;26;4;625;4318;5;651;235;24;5;1519;10328;4;877;676;407;645;33;6;1162;7971;4;585;615;577;556;31;7;747;5674;4;799;460;24;8;741;5687;4;797;454;24;9;404;3055;4;451;513;22
26.10.17;15:05:00;1;1485;4493;0;2;760;4882;4;816;392;24;3;479;3074;4;532;496;26;4;663;4266;5;690;233;24;5;1600;10200;4;923;715;409;650;33;6;1220;7874;4;616;651;582;556;31;7;798;5612;4;858;461;24;8;805;5626;4;862;458;24;9;436;3021;4;482;511;22
26.10.17;15:00:00;1;508;4379;0;2;710;4819;4;762;387;24;3;448;3034;4;499;491;26;4;612;4210;5;637;235;24;5;1454;10069;4;818;635;410;647;33;6;1118;7773;4;560;573;571;553;31;7;702;5546;4;759;459;24;8;710;5559;4;757;447;24;9;386;2985;4;432;503;22
26.10.17;14:55:00;1;515;4336;0;2;739;4760;4;792;390;24;3;468;2997;4;523;495;25;4;643;4159;5;670;232;24;5;1511;9947;4;886;688;406;646;33;6;1166;7680;4;586;604;572;556;31;7;731;5487;4;785;449;24;8;742;5499;4;796;448;24;9;403;2953;4;448;508;22
26.10.17;14:50:00;1;466;4293;0;2;547;4698;4;597;389;24;3;342;2958;4;389;480;25;4;468;4106;5;488;228;24;5;1181;9823;4;705;550;404;638;33;6;895;7585;4;459;488;573;550;31;7;577;5426;4;615;462;24;8;578;5438;4;622;452;24;9;308;2919;4;350;505;22
26.10.17;14:45:00;1;493;4255;0;2;599;4653;4;650;384;24;3;378;2930;4;429;493;26;4;520;4067;5;541;231;24;5;1267;9724;4;755;585;407;647;33;6;981;7510;4;466;490;575;550;31;7;608;5378;4;657;461;24;8;612;5389;4;663;454;24;9;329;2894;4;373;503;22
26.10.17;14:40:00;1;397;4214;0;2;510;4602;4;558;384;24;3;318;2898;4;367;480;26;4;440;4024;5;458;228;24;5;1104;9619;4;588;453;403;634;33;6;844;7429;4;411;430;572;554;31;7;575;5327;4;607;453;25;8;570;5338;4;618;456;24;9;302;2866;4;347;507;22
26.10.17;14:35:00;1;397;4179;0;2;405;4560;4;452;385;24;3;252;2871;4;298;485;26;4;345;3987;5;359;223;24;5;889;9528;4;528;402;402;627;33;6;672;7359;4;345;368;551;544;31;7;449;5280;4;484;455;25;8;440;5291;4;488;459;24;9;239;2841;4;276;501;22
26.10.17;14:30:00;1;397;4146;0;2;474;4526;4;525;380;25;3;296;2850;4;343;489;26;4;403;3958;5;420;227;24;5;1019;9453;4;625;477;403;628;33;6;765;7303;4;380;413;562;537;31;7;501;5242;4;557;449;25;8;510;5254;4;556;455;24;9;271;2821;4;312;501;22
26.10.17;14:25:00;1;400;4112;0;2;574;4486;4;626;386;25;3;356;2826;4;409;496;26;4;491;3924;5;511;228;25;5;1199;9368;4;659;507;402;631;33;6;916;7238;4;468;487;567;547;31;7;634;5200;4;682;461;25;8;631;5212;4;680;459;24;9;339;2798;4;382;501;23
26.10.17;14:20:00;1;401;4079;0;2;631;4439;4;684;385;25;3;396;2796;4;445;489;26;4;542;3884;5;564;231;25;5;1317;9267;4;771;594;404;636;33;6;1018;7161;4;502;518;568;554;31;7;679;5148;4;727;448;25;8;681;5160;4;734;450;25;9;372;2770;4;417;505;23
26.10.17;14:15:00;1;445;4045;0;2;715;4386;4;772;389;26;3;450;2763;4;502;487;26;4;621;3838;5;647;231;25;5;1479;9157;4;850;653;409;644;33;6;1125;7077;4;571;579;578;551;31;7;736;5091;4;784;450;25;8;731;5103;4;786;454;25;9;394;2739;4;441;501;23